[Date Prev][Date Next][Thread Prev][Thread Next][Date Index][Thread Index]
[jamsat-news:1115] jas2info #147
- From: SYUZOU TAKAYAMA <takayama@bm-1.ktokai-u.ac.jp>
- Date: Sat, 3 Jul 1999 17:41:21 +0900
- References: <199907031736.III65543.NBULBBZB@bm-1.ktokai-u.ac.jp>
========================   ºÇ¿·¾ðÊó   ==============================
        Last updated ¡§Sat.3-Jul.-1999 17:40 (JST) #147
====================================================================
   
     ±ÒÀ±¾ðÊ󡡣ƣϥ·¥ê¡¼¥º¤Îµ°Æ»Í×ÁÇ¡¢¥Æ¥ì¥á¥È¥ê¡¢£Ñ£Ó£Ï¤Î¾õ¶·Åù¤ò
   ¤Þ¤È¤á¤Æ¤ß¤Þ¤·¤¿¡¥
  1¡Ë  £Æ£Ï¡Ý£²£¹¡Ê¤Õ¤¸£³¹æ¡Ë¤Ï¡¢7·î£³Æü¡ÊÅÚ¡Ë£±£µ¡§£²£°¡Ê£Ê£Ó£Ô¡Ë¤Î
     ¥Ñ¥¹¤Ç¤Ï£Ê£Á¥¢¥Ê¥í¥°¥â¡¼¥É¤Ç±¿ÍѤµ¤ì¤Æ¤¤¤Þ¤·¤¿. 
       
 ¢£ µ°Æ»Í×ÁÇ£±¡§¡Öjamsat¡Ýkeps¡§£¹£°£°¡×¤è¤ê¡¡¡Ê£¹£°£±¡©¡Ë
              SB KEPS @ AMSAT  $ORB99183.N
¡¡¡¡¡¡¡¡¡¡¡¡¡¡2Line Orbital Elements 99183.AMSAT
¡¡HR AMSAT ORBITAL ELEMENTS FOR AMATEUR SATELLITES IN NASA FORMAT
¡¡FROM WA5QGD FORT WORTH,TX July 2, 1999
¡¡SEND SUBSCRIBE/UNSUBSCRIBE TO majordomo@amsat.org ONLY
¡¡BID: ORB99183.N
¡¡¡¡
 DECODE 2-LINE ELSETS WITH THE FOLLOWING KEY:
 1 AAAAAU 00  0  0 BBBBB.BBBBBBBB  .CCCCCCCC  00000-0  00000-0 0  DDDZ
 2 AAAAA EEE.EEEE FFF.FFFF GGGGGGG HHH.HHHH III.IIII JJ.JJJJJJJJKKKKKZ
 KEY: A-CATALOGNUM B-EPOCHTIME C-DECAY D-ELSETNUM E-INCLINATION F-RAAN
 G-ECCENTRICITY H-ARGPERIGEE I-MNANOM J-MNMOTION K-ORBITNUM Z-CHECKSUM
 TO ALL RADIO AMATEURS BT
 ¡¡FO-29
¡¡1 24278U 96046B   99181.89495528  .00000046  00000-0  80579-4 0 02745
¡¡2 24278 098.5641 131.2125 0352046 058.7517 304.7611 13.52671406141661
 ¢£ µ°Æ»Í×ÁÇ£²¡§¡Öjamsat¡Ýkeps¡§£¹£°£°¡×¤è¤ê                         
¡¡¡¡¡¡¡¡¡¡¡¡¡¡¡¡¡¡SB KEPS @ AMSAT  $ORB99183.O
¡¡¡¡¡¡¡¡¡¡¡¡¡¡¡¡¡¡Orbital Elements  99183.OSCAR
¡¡HR AMSAT ORBITAL ELEMENTS FOR OSCAR SATELLITES
¡¡FROM WA5QGD FORT WORTH,TX July 2, 1999
¡¡SEND SUBSCRIBE/UNSUBSCRIBE TO majordomo@amsat.org ONLY
¡¡BID: ORB99183.O
¡¡TO ALL RADIO AMATEURS BT
¡¡
  Satellite: FO-29
¡¡Catalog number: 24278
¡¡Epoch time:      99181.89495528
¡¡Element set:    0274
¡¡Inclination:      098.5641 deg
¡¡RA of node:       131.2125 deg
¡¡Eccentricity:    0.0352046
¡¡Arg of perigee:   058.7517 deg
¡¡Mean anomaly:     304.7611 deg
¡¡Mean motion:   13.52671406 rev/day
¡¡Decay rate:        4.6e-07 rev/day^2
¡¡Epoch rev:           14166
¡¡Checksum:              322
 -----------------------------------------------------------
  £²)£Æ£Ï¡Ý£²£¹¡Ê¤Õ¤¸£³¹æ¡Ë¤Î £··î£³Æü¡ÊÅڡˤΣ±£µ¡§£²£°¤Î¥Ñ¥¹¤Ç¤Ï
¡¡¡¡£Ê£Á¥¢¥Ê¥í¥°¥â¡¼¥É¤Ç±¿ÍѤµ¤ì¤Æ¤ª¤ê¤Þ¤·¤¿.
¡¡¡¡
¡¡¡¡AS14198C1¡¡3Jul99
¡¡¡¡JST 15:20 - 15:30
¡¡HI HI AE C7 88 55 1A 65 FF 0D 00 27 40 47 81 60 93 91 A0 79 BE BC BD BD BA 
¡¡HI HI AE C7 88 55 1F 65 FF 0D 00 27 71 42 88 60 95 93 A1 99 BE BC BE BD BA 
¡¡HI HI AE C7 88 55 04 65 FF 0D 00 27 86 3B 86 42 96 93 B0 8E BE BC BE BD BA 
¡¡HI HI AE C7 88 55 09 65 FF 0D 00 27 53 34 8C 41 96 93 B0 85 BE BC BD BD BA 
¡¡HI HI AE C7 88 55 0E 65 FF 0D 00 27 66 2F 8D 60 94 93 A2 78 BE BC BD BD BA 
¡¡HI HI AE C7 88 55 13 65 0A 0D 00 27 77 2A 91 60 93 90 9F 67 BE BC BD BD BA 
¡¡HI HI AE C7 88 55 18 65 FF 0D 00 27 66 27 94 60 93 90 B0 8D BD BB BD BD BA 
¡¡HI HI AE C7 88 55 1D 65 FF 0D 00 27 66 27 98 60 94 91 B0 66 BD BB BD BD BB 
¡¡HI HI AE C7 88 55 02 65 FF 0D 00 27 60 22 96 60 93 90 9F 6D BD BB BD BD BA
¡¡HI HI AE C7 88 55 07 65 FF 0D 00 27 6C 22 96 60 94 91 B0 97 BD BB BD BD BA 
¡¡HI HI AE C7 88 55 0D 65 0A 0D 00 27 6B 21 A1 60 93 90 B0 74 BD BB BD BD BA 
¡¡HI HI AE C7 88 55 11 65 FF 0D 00 27 6B 22 A0 60 93 90 A1 7E BD BB BD BD BB 
¡¡HI HI AE C7 88 55 17 65 FF 0D 00 27 57 23 9A 38 97 93 B0 CF BD BB BD BC BB 
¡¡HI HI AE C7 88 55 1C 65 FF 0D 00 27 94 27 96 61 95 92 B0 6E BD BA BC BC BA 
¡¡HI HI AE C7 88 55 01 65 FF 0D 00 27 6D 27 9A 61 95 92 B0 85 BD BA BC BC BA 
¡¡HI HI AE C7 88 55 06 65 FF 0D 00 27 53 27       95 92 B0 7E 
¡¡¡¡AS14170C  1Jul99
¡¡¡¡JST  13:39 - 13:50
    ¡¡                                 4 35 76 60 94 90 B0 7D BT BB BD BD BA 
¡¡HI HI AE C7 88 51 1F 5A FF 0D 00 27 5B 32 83 60 94 90 B0 8A BD BB BD BD BA 
¡¡HI HI AE C7 88 51 04 5A 05 0D 00 27 6A 31 84 45 96 92 B0 92 BD BB BD BD BA 
¡¡HI HI AE C7 88 55 09 5B 0A 0D 00 27 6E 26 80 60 93 90 9F 73 BD BB BD BD BA 
¡¡HI HI AE C7 88 51 0E 5C FF 0D 00 27 72 2C 87 60 94 91 B0 8E BD BB BD BC BA 
¡¡HI HI AE C7 88 51 13 5D FF 0D 00 27 6D 27 8C 60 93 90 B0 73 BD BB BC BC BA 
¡¡HI HI AE C7 88 51 18 5E FF 1E 00 27 5A 26 88 60 96 93 B0 8D BD BB BC BC BA 
¡¡HI HI AE C7 88 55 1D 5E 0A 0D 00 27 72 2C 8E 60 94 91 B0 8A BC BB BC BC BA 
¡¡HI HI AE C7 88 51 02 5F FF 0D 00 27 89 2A 99 60 94 91 B0 89 BC BA BC BC BA 
¡¡HI HI AE C7 88 51 05 60 FF 0I 00 27          60 94 91 B1    BC BA BC BC BA
¡¡HI HI AE C7 88 51 0C 60 FF 0D 00 27 43 2C 92 60 94 91 B0 66 BC BA BC BC BA 
¡¡HI HI AE C7 88 51 12 60 FF 0D 00 27 86 32 8E 60 93 91 B0 94 BC BA BC BC BA 
¡¡HI HI AE C7 88 51 17 60 0A 0D 00 27 99 37 90 60 94 91 B0 79 BC BA BC BC BA 
¡¡HI HI AE C7 88 51 1C 60 FF  S 00 27 44 3B 8E 5F 94 91 B0 7C BC BA BB BB BA 
¡¡HI HI AE C7 88 51 01 60 FF 0D 00 27 3F 3F 89 60 93 90 B0 7D BC BA BB BB BA 
¡¡HI HI AE C7 88 51 07 60 FF 0D 00 27 A8 45 8F 60 93 90 B0  	
¡¡
¡¡AS14157C   30Jun99
¡¡JST 14:33 - 14:45
        ¡¡                                    60 94 91 B0 DB BD BB BD BC B9 
¡¡HI HI AE C7 88 55 0C 59 FF 0D 00 27 7B 34 8B 60 94 91 B0 8D BD BB BD BC B9 
¡¡HI HI AE C7 88 55 11 59 FF 0D 00 27 5C 34 8E 61 94 91 B0 69 BD BB BD BC BA 
¡¡HI HI AE 07 88 55 16 59 0A 0D 00 27 5B 2E 8A 60 96 93 B0 90 BD BB BC BC BA 
¡¡HI HI AE C7 88 55 1B 59 FF 0D 00 27 68 2A 88 60 93 90 B0 72 BD BB BC BC BA 
¡¡HI HI AE C7 88 55 00 59 FF 0D 00 27 6C 29 8A 60 94 91 B0 5D BD BB BC BC BA 
¡¡HI HI AE C7 88 55 05 59 FF 0D 00 27 71 25 96 60 93 90 B0 83 BC BB BC BC B9 
¡¡HI HI AE C7 88 55 0B 59 FF 0D 00 27 5F 24 96 3C 93 90 B0 66 BC BA BC BC BA 
¡¡HI HI AE C7 88 55 10 59 FF 0D 00 27 4F 27 94 60 94 91 B0 75 BC BA BC BC BA 
¡¡HI HI AE C7 88 55 15 59 0A 0D 00 27 7B 2A 8F 60 93 90 B0 91 BC BA BC BC BA 
¡¡HI HI AE 07 78 55 1A 59 FF 0D 00 27 88 26 90 60 93 90 B0 85 BC BA BB BB BA 
¡¡HI HI AE C7 88 55 1F 59 FF 0D 00 27 48 28 8D 60 93 90 B0 7B BC BA BB BB BA 
¡¡HI HI AE C7 88 55 04 59 FF 0D 00 27 47 36 8A 60 93 90 B0 78 BC BA BB BB BA 
¡¡HI HI AE C7 88 55 09 59 05 0D 00 27 9B 3D 8D 60 93 90 B0 76 BB B9 BB BB BA 
¡¡HI HI AE 07 88 55 0F 59 FF 0D 00 26 4A 34 8D 50 93 91 B0 84 BC B9 BB BB BA 
¡¡HI HI AE C7 88 55 14 59 05 0D 00 26 49 3  8D 60 93 91  
¡¡¡¡
¡¡£³¡Ë¥Æ¥ì¥á¥È¥ê´¹»»ÃÍÎã¡¡¡¡
¡¡¡¡
¡¡¡¡AS14198C1¡¡3Jul99
¡¡¡¡JST 15:20 - 15:30 
¡¡¡¡¥¢¥Ê¥í¥°¥Æ¥ì¥á¥È¥ê¤ÎºÇ½é¤Î¹Ô¤Î´¹»»ÃÍÎã
¡¡¡¡
¡¡¥Æ¥ì¥á¥È¥ê	Æâ   ÍÆ	     ´¹»»ÃÍ	ñ °Ì
¡¡£³£Ã	¼§µ¤¥»¥ó¥µ¡¼£Ú¼´=   31372.5	nT
¡¡£³£Ä	¼§µ¤¥»¥ó¥µ£Ø¼´	=   34803.9	nT
¡¡£´£Á	ÂÀÍÛÅÅÃÓȯÀ¸ÅÅή=    1264.7	mA
¡¡£´£Â	£Â½¼ÊüÅÅÅÅή	=    -118.4	mA
¡¡£´£Ã	£Âü»ÒÅ۵	=      15.8	V
¡¡£´£Ä	£ÂÃæ´Öü»ÒÅ۵	=	7.0	V
¡¡£µ£Á	¥Ð¥¹Å۵	=      15.7	V
¡¡£µ£Â	£Ê£Ô£ÁÁ÷¿®ÅÅÎÏ	=¡¡¡¡ 688.4	mW
¡¡£µ£Ã 	¹½Âβ¹ÅÙ£±	=	8.1	¡î
¡¡£µ£Ä	¹½Âβ¹ÅÙ£²	=	8.9	¡î
¡¡£¶£Á	¹½Âβ¹ÅÙ£³	=	8.5	¡î
¡¡£¶£Â	¹½Âβ¹ÅÙ£´	=	8.5	¡î
¡¡£¶£Ã	£Â¥»¥ë²¹ÅÙ	=	9.6	¡î
¡¡¡¡
 ¡¡¡ö·×»»½èÍý¤Ï OFFICE 97 ¤ò»ÈÍÑ¡¥
¡¡ 
 =====  FO - 29 (¤Õ¤¸ £³¹æ¡Ë¤Î¼«Æ°²òÀÏ¥×¥í¥°¥é¥à¤Î¡¡Ver.¡¡Up¡¡¤Ë¤Ä¤¤¤Æ¡¡========
¡¡
¡¡¡¡¡¡£Æ£Ï¡Ý£²£¹¤Î¼«Æ°²òÀÏ¥×¥í¥°¥é¥à¤ÎVer.UP¤Ë¤Ä¤¤¤ÆJE9PEL/1 ¶É¡¡ÏÆÅÄ¡¡Èþº¬É׻᤬
¡¡¡¡¡Öjamsat-BB:4571¡×¤ËÅê¹Æ¤µ¤ì¤Æ¤Þ¤·¤¿¤Î¤ÇžºÜ¤µ¤»¤ÆÄº¤¤Þ¤·¤¿.
¡¡¡¡²¼µ¥×¥í¥°¥é¥à¤ò¥Ð¡¼¥¸¥ç¥ó¥¢¥Ã¥×¤·¤Þ¤·¤¿¡£
¡¡fo29tlme.zip : ±ÒÀ±FO-29 ¥Æ¥ì¥á¥È¥ê¼«Æ°²òÀÏ¥×¥í¥°¥é¥à(V5.5) ±Ñ¸ìÈÇ
¡¡fo29tlm5.lzh : ±ÒÀ±FO-29 ¥Æ¥ì¥á¥È¥ê¼«Æ°²òÀÏ¥×¥í¥°¥é¥à(V5.4) ÆüËܸìÈÇ
¡¡fo29cwt2.lzh : ±ÒÀ±FO-29 £Ã£×¥Æ¥ì¥á¥È¥ê¿ôÃͲòÀÏ¥×¥í¥°¥é¥à(V2.4) ¡·¡¡
¡¡----------------------------------------------
¡¡Name : JE9PEL/1 ÏÆÅÄ
¡¡Mail : je9pel@jamsat.or.jp
¡¡URL  : http://www.ne.jp/asahi/hamradio/je9pel/
¡¡QTH  : Yokohama, Japan
¡¡Date : 2 Jul. 1999
¡¡----------------------------------------------
 ==============================================================================
  £´¡Ë£Æ£Ï¡Ý£²£°¡Ê¤Õ¤¸2¹æ¡Ë¤Î£Ã£×¥Æ¥ì¥á¥È¥ê¤Ï£¶·î£±5Æü¡Ê²Ð¡Ë£±£¸¡§£µ£¶¡Ê£Ê£Ó£Ô¡Ë¤Î
     ¥Ñ¥¹¤Ç¤Ï¥Æ¥ì¥á¥È¥ê¡¼¤¬Ã±°ì¥È¡¼¥ó¤ÎϢ³²»¤«¤éÓ¹¤ê¤òȼ¤Ã¤¿Ï¢Â³²»¡¢¤µ¤é¤Ë¤æ¤é¤®¤Î
     ¤¢¤ë¿®¹æ¤Ë¤Ê¤ê¡¢¤¤¤Þ¤Þ¤Ç¤è¤ê¼ã´³¿®¹æ¤¬¼å¤¯¤Ê¤Ã¤Æ¤¤¤Þ¤·¤¿¡¥
 -----------------------------  FO-20 µ°Æ»Í×ÁÇ ----------------------------------
 
 ¢£ µ°Æ»Í×ÁÇ£± ¡§½Ðŵ¤Ï¡Ö¤Õ¤¸£³¹æ¡×¤ËƱ¤¸¡¥ 
  
  FO-20
¡¡1 20480U 90013C   99182.05968100 -.00000015  00000-0  29998-4 0 01625
¡¡2 20480 099.0232 014.1413 0541250 133.1181 231.6526 12.83253565440115
 
 ¢£ µ°Æ»Í×ÁÇ£² ¡§½Ðŵ¤Ï¡Ö¤Õ¤¸£³¹æ¡×¤ËƱ¤¸¡¥  
               
  Satellite: FO-20
¡¡Catalog number: 20480
¡¡Epoch time:      99182.05968100
¡¡Element set:    0162
¡¡Inclination:      099.0232 deg
¡¡RA of node:       014.1413 deg
¡¡Eccentricity:    0.0541250
¡¡Arg of perigee:   133.1181 deg
¡¡Mean anomaly:     231.6526 deg
¡¡Mean motion:   12.83253565 rev/day
¡¡Decay rate:       -1.5e-07 rev/day^2
¡¡Epoch rev:           44011
¡¡Checksum:              250
¡¡
   =====================================================================
 £µ¡Ë£Ê£Á£Ò£Ì ¤Î¥Û¡¼¥à¥Ú¡¼¥¸¤Ë¿·¤·¤¤±¿ÍÑÄɲÃͽÄ꤬µºÜ¤µ¤ì¤Æ¤¤¤Þ¤·¤¿¤Î¤Ç¤´¾Ò²ð¤·¤Þ¤¹¡¥
       ¡Ê http://www.jarl.or.jp/Japanese/3_Fuji/uy.htm ¡Ë
        ¢£ ¤Õ¤¸£³¹æ¡¿£Æ£Ï¡Ý£²£¹ ¢£  
  
